Flag Weather past 2 weeks in Wellington, New Zealand

Now
63 °F

Overcast.


Feels Like: 63 °F
Forecast: 51 / 63 °F
Wind: 32 mph from North

Location: Wellington Airport

Current Time: Nov 22, 2014 at 2:54:10 PM

Latest Report: Nov 22, 2014 at 2:30 PM


Visibility: N/A

Pressure: 29.62 "Hg

Humidity: 83%

Dew point: 57 °F

Location of WellingtonLocation

Historic Weather in Wellington — Graph

°F

Wellington temperature yesterday

Maximum temperature yesterday: 68 °F (at 1:30 PM)
Minimum temperature yesterday: 55 °F (at 2:30 AM)
Average temperature yesterday: 61 °F

Past Weeks' High & Low Weather Summary

 TemperatureHumidityPressure
High70 °F (Nov 10, 1:30 PM)100% (Nov 17, 8:00 PM)30.21 "Hg (Nov 17, 8:00 PM)
Low45 °F (Nov 8, 4:00 AM)34% (Nov 15, 9:00 PM)29.15 "Hg (Nov 12, 4:00 PM)
Average57 °F68%29.67 "Hg
* Reported Nov 7 1:00 PM — Nov 22 1:30 PM, Wellington, Weather by CustomWeather, © 2014

Note: Actual official high and low records may vary slightly from our data, if they occured in-between our weather recording intervals... More about our weather records

Advertising

Wellington weather history for previous 24 hours

 ConditionsComfort  
Time TempWeatherWind HumidityBarometerVisibility
1:30 PM
Nov 22
63 °FOvercast.30 mph83%29.68 "HgN/A
1:00 PM63 °FPartly sunny.32 mph83%29.68 "HgN/A
12:30 PM64 °FPartly sunny.36 mph78%29.68 "HgN/A
12:00 PM63 °FOvercast.32 mph83%29.71 "HgN/A
11:30 AM63 °FOvercast.29 mph83%29.71 "HgN/A
11:00 AM63 °FOvercast.29 mph83%29.74 "HgN/A
10:30 AM63 °FOvercast.24 mph83%29.77 "HgN/A
10:00 AM63 °FOvercast.29 mph83%29.77 "Hg6 mi
9:30 AM63 °FOvercast.31 mph88%29.74 "HgN/A
9:00 AM63 °FLow clouds.28 mph83%29.74 "HgN/A
8:30 AM63 °FPartly sunny.28 mph83%29.74 "HgN/A
8:00 AM63 °FPartly sunny.28 mph83%29.74 "HgN/A
7:30 AM63 °FPartly sunny.28 mph83%29.74 "HgN/A
7:00 AM61 °FLow clouds.25 mph94%29.74 "HgN/A
6:30 AM61 °FDrizzle. Low clouds.31 mph94%29.74 "Hg5 mi
6:00 AM61 °FDrizzle. Low clouds.33 mph94%29.74 "Hg6 mi
5:30 AM61 °FPassing clouds.29 mph94%29.74 "HgN/A
5:00 AM61 °FDrizzle. Low clouds.28 mph88%29.74 "HgN/A
4:30 AM59 °FPassing clouds.25 mph94%29.74 "Hg4 mi
4:00 AM61 °FLow clouds.26 mph88%29.77 "HgN/A
3:30 AM61 °FPassing clouds.22 mph88%29.80 "HgN/A
3:00 AM61 °FPassing clouds.21 mph88%29.80 "HgN/A
2:30 AM61 °FLow clouds.21 mph88%29.83 "HgN/A
2:00 AM61 °FLow clouds.16 mph88%29.83 "HgN/A
1:30 AM61 °FPassing clouds.22 mph88%29.83 "HgN/A
1:00 AM59 °FPassing clouds.23 mph88%29.83 "HgN/A
12:30 AM59 °FPassing clouds.22 mph88%29.86 "HgN/A
12:00 AM61 °FCool.21 mph83%29.83 "HgN/A
11:30 PM
Nov 21
61 °FPassing clouds.22 mph83%29.86 "HgN/A
11:00 PM61 °FPassing clouds.23 mph83%29.86 "HgN/A
10:30 PM61 °FCool.20 mph77%29.86 "HgN/A
10:00 PM61 °FCool.21 mph77%29.89 "HgN/A
9:30 PM61 °FPassing clouds.18 mph77%29.89 "HgN/A
9:00 PM61 °FPassing clouds.17 mph77%29.89 "HgN/A
8:30 PM61 °FPassing clouds.23 mph77%29.89 "HgN/A
8:00 PM59 °FPartly sunny.25 mph82%29.89 "HgN/A
7:30 PM61 °FPartly sunny.24 mph77%29.86 "HgN/A
7:00 PM59 °FPartly sunny.21 mph82%29.86 "HgN/A
6:30 PM61 °FPartly sunny.21 mph77%29.89 "HgN/A
6:00 PM61 °FScattered clouds.21 mph77%29.86 "HgN/A
5:30 PM63 °FPartly sunny.17 mph73%29.89 "HgN/A
5:00 PM63 °FPartly sunny.26 mph73%29.86 "HgN/A
4:30 PM63 °FPartly sunny.25 mph73%29.89 "HgN/A
3:30 PM64 °FMild.28 mph64%29.89 "HgN/A
3:00 PM66 °FMild.26 mph60%29.89 "HgN/A
2:30 PM68 °FMild.25 mph60%29.89 "HgN/A
2:00 PM68 °FMild.24 mph60%29.89 "HgN/A
Weather by CustomWeather, © 2014

See weather overviewHow to use our weather pages